Location: Unspecified
(49.9820°N, 20.4363°E)
Time: 07:49:27
(UTC+02:00)

ISS - Visible Passes

Search period start: 24 October 2017 00:00
Search period end: 02 November 2017 23:00
Orbit: 400 x 408 km, 51.6° (Epoch: 24 October)

Date Brightness Start Highest point End Pass type
(mag) Time Alt. Az. Time Alt. Az. Time Alt. Az.
29 Oct -0.4 05:15:17 10° SE 05:15:48 10° SE 05:16:20 10° SE visible
31 Oct -1.3 05:04:37 10° S 05:07:04 20° SE 05:09:31 10° E visible
01 Nov -0.9 04:13:27 10° SSE 04:14:52 12° SE 04:16:17 10° ESE visible
01 Nov -3.1 05:47:34 10° SW 05:50:45 54° SSE 05:53:57 10° ENE visible
02 Nov -2.4 04:56:01 14° SSW 04:58:24 35° SSE 05:01:25 10° E visible
